[[{"header":{"parameterUnit":"m.s-1","parameterCategory":1,"la1":30.2991,"la2":30.254,"lo1":-89.0895,"lo2":-89.0444,"dy":0.0017,"dx":0.0017,"nx":28,"ny":28,"refTime":"2023-04-26T21:00:00:Z","depth":0,"parameterNumber":2,"parameterNumberName":"U-component_of_WINDS"},"data":[0,0,0,0,0,0,0,0,0,0,0,0,0,0,0,0,0,0,0,0,0,0,0,0,0,0,0,0,0,0,0,0,0,0,0,0,0,0,0,0,0,0,0,0,0,0,0,0,0,0,0,0,0,0,0,0,0,0,-2.553,-2.5529,0,-2.5492,-2.5491,-2.5491,-2.5405,-2.5403,-2.5401,-2.5399,-2.5364,-2.5365,-2.5365,0,0,0,0,0,0,0,0,0,0,0,0,0,-2.553,-2.5531,-2.553,-2.5529,-2.5529,-2.5492,-2.5491,-2.5491,-2.5405,-2.5403,-2.5401,-2.5399,-2.5364,-2.5364,-2.5365,0,0,0,0,0,0,0,0,0,0,0,0,0,-2.5515,-2.5531,-2.553,-2.5481,-2.5477,-2.5492,-2.5491,-2.5491,-2.5406,-2.5403,-2.54,-2.5398,-2.5363,-2.5364,-2.5365,-2.5426,0,0,-2.5369,-2.5369,0,0,0,0,0,0,0,0,-2.5516,-2.5515,-2.5489,-2.5485,-2.5479,-2.545,-2.5478,-2.5469,-2.5406,-2.5433,-2.5399,-2.5396,-2.5395,-2.5393,-2.5392,-2.5424,-2.5422,-2.5369,-2.5369,-2.537,-2.537,0,0,0,0,0,0,0,-2.5517,-2.5516,-2.5515,-2.5489,-2.5483,-2.5462,-2.5457,-2.5476,-2.5429,-2.543,-2.5424,-2.542,-2.5392,-2.5391,-2.5391,-2.5422,-2.5369,-2.537,-2.537,-2.5371,-2.5502,-2.5505,0,0,0,0,0,0,-2.5525,-2.5518,-2.5516,-2.5513,-2.5491,-2.5465,-2.5459,-2.5462,-2.5429,-2.5421,-2.5423,-2.5416,-2.5391,-2.539,-2.5389,-2.5458,-2.537,-2.5371,-2.5372,-2.5499,-2.5503,-2.5506,0,0,0,0,0,0,-2.5525,-2.5525,-2.5517,-2.5514,-2.5511,-2.5467,-2.5472,-2.5463,-2.5462,-2.5423,-2.5415,-2.5431,-2.5389,-2.5388,-2.5417,-2.5455,-2.5371,-2.5372,-2.5496,-2.55,-2.5504,-2.5596,0,0,0,0,0,0,-2.5526,-2.5526,-2.5548,-2.5515,-2.5512,-2.5546,-2.5474,-2.5464,-2.5464,-2.5456,-2.5428,-2.5421,-2.5386,-2.5416,-2.5418,-2.5455,-2.5373,-2.5492,-2.5498,-2.5503,-2.5589,-2.5603,-2.5614,0,0,0,0,0,-2.5526,-2.5576,-2.5549,-2.555,-2.5538,-2.5548,-2.5546,-2.5504,-2.5467,-2.5489,-2.5464,-2.5422,-2.5451,-2.542,-2.5422,-2.546,-2.549,-2.5496,-2.5502,-2.5584,-2.56,-2.5614,0,0,0,0,0,0,-2.5615,-2.5571,-2.5541,-2.5581,-2.5569,-2.5533,-2.556,-2.5523,-2.5521,-2.5514,-2.5462,-2.5457,-2.5494,-2.5479,-2.5446,-2.5516,-2.5463,-2.547,-2.5525,-2.554,-2.5552,-2.5555,-2.5374,0,0,0,0,0,-2.564,-2.565,-2.5611,-2.5651,-2.5646,-2.5604,-2.5607,-2.5576,-2.5561,-2.5556,-2.5533,-2.5521,-2.5527,-2.5533,-2.5536,-2.5586,-2.558,-2.5614,-2.5626,-2.5637,-2.5644,-2.567,-2.5685,-2.5527,-2.5527,-2.5526,0,0,-2.569,-2.5667,-2.5677,-2.5668,-2.5655,-2.5668,-2.56,-2.5617,-2.5627,-2.5558,-2.5585,-2.5568,-2.5551,-2.5592,-2.5608,-2.5581,-2.5686,-2.5645,-2.5653,-2.5655,-2.5678,-2.5693,-2.5706,-2.5531,-2.553,-2.5529,0,0,-2.5789,-2.5773,-2.5804,-2.5792,-2.5772,-2.5744,-2.5752,-2.5722,-2.5707,-2.5733,-2.5682,-2.5693,-2.5705,-2.5695,-2.5692,-2.5788,-2.575,-2.5791,-2.5857,-2.5883,-2.5895,-2.5906,-2.5941,-2.5954,-2.5798,-2.5798,-2.5798,0,-2.5855,-2.5872,-2.5825,-2.5845,-2.5843,-2.5781,-2.5813,-2.5803,-2.5787,-2.5787,-2.5756,-2.577,-2.5754,-2.5792,-2.5816,-2.5815,-2.5823,-2.5794,-2.5897,-2.5908,-2.5917,-2.595,-2.5963,-2.5803,-2.5803,-2.5802,-2.5801,0,-2.5955,-2.5967,-2.5995,-2.5979,-2.598,-2.6007,-2.5964,-2.5971,-2.594,-2.5915,-2.5943,-2.5922,-2.592,-2.5927,-2.5897,-2.5961,-2.5944,-2.5906,-2.5852,-2.5938,-2.5968,-2.598,-2.5811,-2.5809,-2.5807,-2.5806,0,0,-2.611,-2.6067,-2.6078,-2.6071,-2.6044,-2.6054,-2.6078,-2.6075,-2.6082,-2.6073,-2.6092,-2.6104,-2.6068,-2.6065,-2.6033,-2.6056,-2.6134,-2.6015,-2.6014,-2.6039,-2.6205,-2.6234,-2.6249,-2.6108,-2.611,-2.6112,-2.6206,0,-2.6203,-2.624,-2.6199,-2.6245,-2.6257,-2.6197,-2.6218,-2.6205,-2.6183,-2.619,-2.6166,-2.6175,-2.6127,-2.6125,-2.6145,-2.6121,-2.6167,-2.6113,-2.6127,-2.6128,-2.6134,-2.6265,-2.6296,-2.6386,-2.6218,-2.6219,-2.6221,0,-2.6317,-2.6313,-2.636,-2.6331,-2.6334,-2.6354,-2.6348,-2.6356,-2.634,-2.6322,-2.6319,-2.628,-2.6302,-2.6249,-2.628,-2.6244,-2.6247,-2.6236,-2.6238,-2.6239,-2.618,-2.627,-2.6413,-2.6427,-2.6239,-2.6237,-2.6236,0,-2.6427,-2.6432,-2.6461,-2.6456,-2.6423,-2.6438,-2.6425,-2.6406,-2.6408,-2.6404,-2.6404,-2.6403,-2.6403,-2.6403,-2.6366,-2.633,-2.6402,-2.6345,-2.6389,-2.639,-2.6407,-2.6407,-2.6554,-2.6408,-2.6408,-2.6407,-2.6407,0,-2.6536,-2.6568,-2.651,-2.6528,-2.6562,-2.6514,-2.6549,-2.653,-2.6514,-2.6528,-2.6477,-2.6492,-2.6441,-2.6451,-2.6422,-2.6452,-2.6452,-2.6439,-2.6431,-2.6444,-2.6446,-2.6446,-2.644,-2.6411,-2.641,-2.641,-2.6409,0,-2.6665,-2.6627,-2.6655,-2.6621,-2.6613,-2.664,-2.6611,-2.6627,-2.6601,-2.662,-2.6621,-2.6582,-2.659,-2.6553,-2.6555,-2.6535,-2.6581,-2.6562,-2.6586,-2.6581,-2.6627,-2.6624,-2.6781,-2.6799,-2.6641,-2.6642,-2.6643,0,-2.6738,-2.676,-2.6729,-2.6734,-2.6723,-2.6733,-2.6733,-2.6687,-2.6691,-2.6674,-2.6693,-2.6697,-2.6698,-2.6714,-2.6686,-2.6688,-2.667,-2.6724,-2.667,-2.6682,-2.6672,-2.6671,-2.6674,-2.6736,-2.6738,-2.674,-2.6741,0,-2.6871,-2.6851,-2.6854,-2.6851,-2.6853,-2.6848,-2.684,-2.6848,-2.6798,-2.6805,-2.6812,-2.6813,-2.6815,-2.682,-2.6816,-2.6804,-2.6765,-2.6758,-2.6769,-2.6783,-2.6796,-2.6791,-2.6619,-2.6755,-2.6754,-2.6753,-2.6752,-2.6752,-2.6974,-2.6992,-2.6973,-2.6978,-2.6966,-2.696,-2.6973,-2.6949,-2.6954,-2.6952,-2.6924,-2.6938,-2.6922,-2.6912,-2.6903,-2.6914,-2.6888,-2.6903,-2.6907,-2.6912,-2.692,-2.6794,-2.6913,-2.6912,-2.6912,-2.6912,-2.6911,0,-2.7106,-2.709,-2.7095,-2.7085,-2.709,-2.7051,-2.704,-2.7047,-2.7059,-2.7047,-2.7048,-2.7058,-2.7063,-2.7035,-2.7036,-2.705,-2.7032,-2.7052,-2.7051,-2.7049,-2.6942,-2.6934,-2.7066,-2.7066,-2.7066,-2.7066,-2.7066,-2.7066,-2.7175,-2.7203,-2.7181,-2.7204,-2.7188,-2.7199,-2.7197,-2.7191,-2.7181,-2.7194,-2.7197,-2.7178,-2.716,-2.716,-2.7163,-2.7155,-2.7158,-2.7185,-2.7171,-2.7072,-2.7057,-2.7042,-2.7034,-2.7185,-2.7186,-2.7276,-2.7277,-2.7278]},{"header":{"parameterUnit":"m.s-1","parameterCategory":1,"la1":30.2991,"la2":30.254,"lo1":-89.0895,"lo2":-89.0444,"dy":0.0017,"dx":0.0017,"nx":28,"ny":28,"refTime":"2023-04-26T21:00:00:Z","depth":0,"parameterNumber":3,"parameterNumberName":"V-component_of_WINDS"},"data":[0,0,0,0,0,0,0,0,0,0,0,0,0,0,0,0,0,0,0,0,0,0,0,0,0,0,0,0,0,0,0,0,0,0,0,0,0,0,0,0,0,0,0,0,0,0,0,0,0,0,0,0,0,0,0,0,0,0,-0.9468,-0.9468,0,-0.9449,-0.9448,-0.9448,-0.9397,-0.9396,-0.9395,-0.9394,-0.9376,-0.9376,-0.9377,0,0,0,0,0,0,0,0,0,0,0,0,0,-0.9462,-0.9462,-0.9468,-0.9468,-0.9467,-0.9449,-0.9448,-0.9448,-0.9398,-0.9396,-0.9395,-0.9394,-0.9376,-0.9376,-0.9377,0,0,0,0,0,0,0,0,0,0,0,0,0,-0.9456,-0.9462,-0.9468,-0.944,-0.9437,-0.9449,-0.9448,-0.9448,-0.9398,-0.9396,-0.9395,-0.9393,-0.9376,-0.9376,-0.9377,-0.9415,0,0,-0.938,-0.938,0,0,0,0,0,0,0,0,-0.9456,-0.9456,-0.9444,-0.9442,-0.9439,-0.9424,-0.9439,-0.9437,-0.9398,-0.9413,-0.9394,-0.9392,-0.9393,-0.9393,-0.9393,-0.9414,-0.9413,-0.938,-0.938,-0.938,-0.9381,0,0,0,0,0,0,0,-0.9457,-0.9457,-0.946,-0.9444,-0.9441,-0.9429,-0.9426,-0.9439,-0.9413,-0.9412,-0.9408,-0.9406,-0.9391,-0.9392,-0.9392,-0.9413,-0.938,-0.938,-0.9381,-0.9381,-0.9464,-0.9466,0,0,0,0,0,0,-0.9461,-0.9457,-0.9461,-0.946,-0.9444,-0.943,-0.9427,-0.943,-0.9412,-0.9408,-0.9408,-0.9404,-0.9391,-0.9391,-0.9391,-0.9434,-0.938,-0.9381,-0.9382,-0.9462,-0.9464,-0.9466,0,0,0,0,0,0,-0.9461,-0.9462,-0.9462,-0.9457,-0.9457,-0.9432,-0.9436,-0.9431,-0.9431,-0.9409,-0.9404,-0.9413,-0.939,-0.939,-0.9409,-0.9432,-0.9382,-0.9382,-0.946,-0.9463,-0.9465,-0.952,0,0,0,0,0,0,-0.9461,-0.9462,-0.9476,-0.9458,-0.9457,-0.948,-0.9437,-0.9432,-0.9432,-0.9427,-0.9413,-0.9409,-0.9389,-0.9408,-0.941,-0.9433,-0.9383,-0.9458,-0.9461,-0.9464,-0.9516,-0.9524,-0.9531,0,0,0,0,0,-0.9461,-0.9493,-0.9477,-0.9478,-0.9474,-0.9482,-0.9481,-0.9457,-0.9435,-0.9448,-0.9434,-0.9409,-0.9429,-0.9411,-0.9412,-0.9435,-0.9456,-0.946,-0.9464,-0.9513,-0.9523,-0.9531,0,0,0,0,0,0,-0.9514,-0.949,-0.9472,-0.9499,-0.9493,-0.9473,-0.949,-0.9468,-0.9468,-0.9464,-0.9434,-0.9431,-0.9455,-0.9447,-0.9426,-0.9471,-0.9439,-0.9443,-0.9475,-0.9484,-0.9492,-0.9494,-0.9384,0,0,0,0,0,-0.9529,-0.9537,-0.9515,-0.9541,-0.9538,-0.9515,-0.9517,-0.9499,-0.9492,-0.9489,-0.9476,-0.947,-0.9475,-0.9479,-0.9483,-0.9514,-0.9511,-0.9531,-0.9539,-0.9545,-0.9549,-0.9566,-0.9575,-0.9479,-0.9479,-0.9479,0,0,-0.956,-0.9547,-0.9554,-0.9551,-0.9544,-0.9554,-0.9513,-0.9525,-0.9531,-0.9491,-0.9508,-0.9499,-0.949,-0.9516,-0.9527,-0.951,-0.9575,-0.955,-0.9555,-0.9556,-0.9571,-0.958,-0.9588,-0.9482,-0.9481,-0.9481,0,0,-0.9621,-0.9612,-0.9632,-0.9626,-0.9616,-0.96,-0.9605,-0.9588,-0.958,-0.9597,-0.9567,-0.9574,-0.9584,-0.9579,-0.9578,-0.9636,-0.9613,-0.9638,-0.9678,-0.9694,-0.9702,-0.9708,-0.973,-0.9738,-0.9642,-0.9642,-0.9643,0,-0.9661,-0.9673,-0.9646,-0.9659,-0.9659,-0.9622,-0.9642,-0.9638,-0.9629,-0.963,-0.9611,-0.9622,-0.9614,-0.9638,-0.9652,-0.9652,-0.9657,-0.964,-0.9703,-0.9709,-0.9715,-0.9735,-0.9743,-0.9646,-0.9645,-0.9645,-0.9645,0,-0.9722,-0.9732,-0.9749,-0.9742,-0.9743,-0.976,-0.9736,-0.974,-0.9722,-0.9708,-0.9726,-0.9714,-0.9715,-0.9719,-0.9701,-0.9741,-0.9731,-0.9708,-0.9675,-0.9728,-0.9746,-0.9753,-0.965,-0.9649,-0.9648,-0.9647,0,0,-0.9817,-0.9794,-0.9801,-0.9797,-0.9782,-0.9789,-0.9805,-0.9804,-0.9809,-0.9805,-0.9817,-0.9826,-0.9804,-0.9803,-0.9784,-0.9798,-0.9846,-0.9774,-0.9773,-0.9788,-0.9889,-0.9907,-0.9916,-0.9831,-0.9832,-0.9833,-0.989,0,-0.9875,-0.99,-0.9875,-0.9905,-0.9913,-0.9878,-0.9891,-0.9884,-0.9871,-0.9877,-0.9863,-0.9869,-0.984,-0.9839,-0.9852,-0.9838,-0.9866,-0.9833,-0.9842,-0.9843,-0.9846,-0.9926,-0.9945,-0.9999,-0.9897,-0.9898,-0.9899,0,-0.9946,-0.9944,-0.9975,-0.9958,-0.9961,-0.9973,-0.9971,-0.9976,-0.9968,-0.9957,-0.9956,-0.9933,-0.9947,-0.9915,-0.9934,-0.9912,-0.9915,-0.9908,-0.991,-0.991,-0.9875,-0.9929,-1.0016,-1.0025,-0.991,-0.9909,-0.9908,0,-1.0013,-1.0018,-1.0036,-1.0034,-1.0015,-1.0025,-1.0018,-1.0007,-1.0009,-1.0007,-1.0008,-1.0008,-1.0008,-1.0009,-0.9987,-0.9965,-1.0009,-0.9975,-1.0002,-1.0002,-1.0013,-1.0013,-1.0102,-1.0014,-1.0014,-1.0013,-1.0013,0,-1.008,-1.01,-1.0066,-1.0078,-1.0099,-1.0071,-1.0093,-1.0082,-1.0073,-1.0083,-1.0052,-1.0062,-1.0031,-1.0038,-1.002,-1.004,-1.004,-1.0032,-1.0028,-1.0035,-1.0036,-1.0037,-1.0033,-1.0016,-1.0015,-1.0015,-1.0014,0,-1.0159,-1.0137,-1.0155,-1.0135,-1.0131,-1.0148,-1.0131,-1.0141,-1.0126,-1.0138,-1.0139,-1.0116,-1.0122,-1.01,-1.0102,-1.009,-1.0119,-1.0107,-1.0122,-1.0118,-1.0146,-1.0144,-1.024,-1.0251,-1.0155,-1.0156,-1.0157,0,-1.0204,-1.0218,-1.02,-1.0204,-1.0198,-1.0204,-1.0205,-1.0178,-1.0181,-1.0171,-1.0183,-1.0186,-1.0187,-1.0198,-1.0182,-1.0183,-1.0172,-1.0206,-1.0172,-1.018,-1.0173,-1.0173,-1.0175,-1.0213,-1.0214,-1.0215,-1.0216,0,-1.0286,-1.0274,-1.0277,-1.0275,-1.0277,-1.0275,-1.0271,-1.0276,-1.0246,-1.0251,-1.0256,-1.0257,-1.0259,-1.0263,-1.0261,-1.0253,-1.023,-1.0226,-1.0233,-1.0241,-1.0249,-1.0246,-1.0141,-1.0224,-1.0224,-1.0223,-1.0222,-1.0222,-1.0349,-1.0361,-1.035,-1.0353,-1.0347,-1.0344,-1.0352,-1.0338,-1.0342,-1.0341,-1.0324,-1.0333,-1.0324,-1.0319,-1.0314,-1.032,-1.0305,-1.0314,-1.0316,-1.0319,-1.0324,-1.0247,-1.032,-1.032,-1.0319,-1.0319,-1.0319,0,-1.043,-1.0421,-1.0425,-1.042,-1.0423,-1.04,-1.0394,-1.0398,-1.0406,-1.0399,-1.04,-1.0406,-1.041,-1.0393,-1.0395,-1.0403,-1.0392,-1.0404,-1.0404,-1.0403,-1.0338,-1.0332,-1.0413,-1.0413,-1.0413,-1.0413,-1.0413,-1.0413,-1.0473,-1.0491,-1.0478,-1.0492,-1.0483,-1.0491,-1.0489,-1.0486,-1.0481,-1.0489,-1.0491,-1.048,-1.0469,-1.0469,-1.0472,-1.0467,-1.0469,-1.0485,-1.0476,-1.0416,-1.0407,-1.0398,-1.0393,-1.0485,-1.0485,-1.054,-1.0541,-1.0541]}]]